Location: Oak Glen
(34.0495°N, 116.9470°E)
Time: 03:19:07
(UTC-07:00)

Vanguard 1 - Pass Details

Date: 22 June 2018
Orbit: 650 x 3833 km, 34.2° (Epoch: 24 September)

Event Time Altitude Azimuth Distance (km) Brightness Sun altitude
Rises 21:03:41 0° 287° (WNW) 6,651 14.3 79.1°
Reaches altitude 10° 21:07:41 10° 283° (WNW) 5,964 14.2 79.3°
Maximum altitude 21:27:12 54° 214° (SW) 4,298 14.7 79.0°
Drops below altitude 10° 21:48:53 10° 144° (SE) 6,495 14.4 77.0°
Sets 21:53:33 0° 139° (SE) 7,242 14.5 76.4°
